Flag for U.S.A. Weather past 2 weeks in Riverside, California, U.S.A.

Now
74 °F

Sunny.


Feels Like: 77 °F
Forecast: 66 / 98 °F
Wind: 3 mph from Northeast

Location: Riverside Municipal Airport

Current Time: Aug 28, 2014 at 9:13:58 AM

Latest Report: Aug 28, 2014 at 7:53 AM


Visibility: 10 mi

Pressure: 29.97 "Hg

Humidity: 48%

Dew point: 53 °F

Location of RiversideLocation

Historic Weather in Riverside — Graph

°F

Riverside temperature yesterday

Maximum temperature yesterday: 96 °F (at 1:53 PM)
Minimum temperature yesterday: 67 °F (at 6:53 AM)
Average temperature yesterday: 81 °F

Past Weeks' High & Low Weather Summary

 TemperatureHumidityPressure
High98 °F (Aug 15, 2:53 PM)90% (Aug 21, 6:53 AM)30.01 "Hg (Aug 21, 6:53 AM)
Low63 °F (Aug 23, 5:53 AM)17% (Aug 16, 9:53 AM)29.72 "Hg (Aug 18, 3:53 PM)
Average77 °F53%29.88 "Hg
* Reported Aug 13 7:53 AM — Aug 28 7:53 AM, Riverside, Weather by CustomWeather, © 2014

Note: Actual official high and low records may vary slightly from our data, if they occured in-between our weather recording intervals... More about our weather records

Advertising

Riverside weather history for previous 24 hours

 ConditionsComfort  
Time TempWeatherWind HumidityBarometerVisibility
7:53 AM
Aug 28
74 °FSunny.3 mph48%29.97 "Hg10 mi
6:53 AM69 °FClear.No wind57%29.98 "Hg10 mi
5:53 AM67 °FClear.No wind63%29.97 "Hg10 mi
4:53 AM70 °FClear.3 mph55%29.96 "Hg10 mi
3:53 AM70 °FClear.No wind57%29.96 "Hg10 mi
2:53 AM71 °FClear.5 mph53%29.97 "Hg10 mi
1:53 AM73 °FClear.3 mph48%29.98 "Hg10 mi
12:53 AM76 °FClear.No wind40%29.98 "Hg10 mi
11:53 PM
Aug 27
78 °FClear.5 mph37%29.98 "Hg10 mi
10:53 PM79 °FClear.No wind35%29.98 "Hg10 mi
9:53 PM80 °FClear.No wind34%29.98 "Hg10 mi
8:53 PM83 °FClear.3 mph32%29.96 "Hg10 mi
7:53 PM85 °FSunny.8 mph31%29.95 "Hg10 mi
6:53 PM89 °FSunny.12 mph27%29.93 "Hg10 mi
5:53 PM91 °FSunny.10 mph24%29.93 "Hg10 mi
4:53 PM93 °FSunny.15 mph21%29.92 "Hg10 mi
3:53 PM95 °FSunny.15 mph21%29.92 "Hg10 mi
2:53 PM95 °FSunny.8 mph23%29.93 "Hg10 mi
1:53 PM96 °FSunny.7 mph20%29.95 "Hg10 mi
12:53 PM93 °FSunny.7 mph20%29.97 "Hg10 mi
11:53 AM90 °FSunny.6 mph22%29.98 "Hg10 mi
10:53 AM87 °FSunny.No wind25%30.00 "Hg10 mi
9:53 AM83 °FSunny.No wind33%30.01 "Hg10 mi
Weather by CustomWeather, © 2014

See weather overviewHow to use our weather pages